When you browse on this site, cookies collect data to enhance your experience and personalize the content and advertising you see.
Visit our Privacy Policy to learn more. By continuing to use the site, you agree to this use of cookies and data.
  • In France
  • List of Countries
  • For 7 days
  • Water Temperature
  • Weather Map
  • Weather Widgets
  • user-avatar
    Login

    Hourly Weather Heidelberg

    Today, 21 September, Saturday

    Time Temperature Precipitation Wind Pressure Humidity
    00:00 +9°C° 0 mm 2 mps 738 mmHg 68%
    01:00 +9°C° 0 mm 2 mps 738 mmHg 68%
    02:00 +9°C° 0 mm 2 mps 737 mmHg 69%
    03:00 +8°C° 0 mm 2 mps 737 mmHg 70%
    04:00 +8°C° 0 mm 2 mps 737 mmHg 70%
    05:00 +8°C° 0 mm 2 mps 737 mmHg 70%
    06:00 +8°C° 0 mm 2 mps 737 mmHg 70%
    07:00 +8°C° 0 mm 2 mps 736 mmHg 69%
    08:00 +10°C° 0 mm 3 mps 736 mmHg 61%
    09:00 +12°C° 0 mm 3 mps 736 mmHg 53%
    10:00 +16°C° 0 mm 3 mps 736 mmHg 45%
    11:00 +17°C° 0 mm 3 mps 736 mmHg 42%
    12:00 +19°C° 0 mm 3 mps 736 mmHg 39%
    13:00 +21°C° 0 mm 3 mps 735 mmHg 36%
    14:00 +21°C° 0 mm 3 mps 735 mmHg 38%
    15:00 +21°C° 0 mm 4 mps 734 mmHg 39%
    16:00 +21°C° 0 mm 4 mps 734 mmHg 41%
    17:00 +20°C° 0 mm 3 mps 733 mmHg 48%
    18:00 +18°C° 0 mm 3 mps 733 mmHg 55%
    19:00 +16°C° 0 mm 3 mps 733 mmHg 62%
    20:00 +14°C° 0 mm 3 mps 733 mmHg 65%
    21:00 +13°C° 0 mm 3 mps 732 mmHg 68%
    22:00 +14°C° 0 mm 2 mps 732 mmHg 71%
    23:00 +13°C° 0 mm 2 mps 732 mmHg 73%

    Tomorrow, 22 September, Sunday

    Time Temperature Precipitation Wind Pressure Humidity
    00:00 +12°C° 0 mm 2 mps 732 mmHg 76%
    01:00 +12°C° 0 mm 2 mps 732 mmHg 78%
    02:00 +11°C° 0 mm 1 mps 731 mmHg 80%
    03:00 +11°C° 0 mm 1 mps 731 mmHg 81%
    04:00 +11°C° 0 mm 1 mps 731 mmHg 82%
    05:00 +11°C° 0 mm 1 mps 731 mmHg 81%
    06:00 +11°C° 0 mm 1 mps 731 mmHg 80%
    07:00 +11°C° 0 mm 1 mps 730 mmHg 79%
    08:00 +13°C° 0 mm 1 mps 730 mmHg 71%
    09:00 +16°C° 0 mm 1 mps 730 mmHg 63%
    10:00 +19°C° 0 mm 1 mps 730 mmHg 55%
    11:00 +20°C° 0 mm 1 mps 730 mmHg 51%
    12:00 +22°C° 0 mm 1 mps 730 mmHg 48%
    13:00 +23°C° 0 mm 1 mps 730 mmHg 44%
    14:00 +22°C° 0 mm 1 mps 730 mmHg 48%
    15:00 +22°C° 0 mm 1 mps 729 mmHg 51%
    16:00 +21°C° 0 mm 1 mps 729 mmHg 55%
    17:00 +20°C° 0 mm 1 mps 729 mmHg 57%
    18:00 +19°C° 0 mm 1 mps 728 mmHg 60%
    19:00 +18°C° 0 mm 1 mps 728 mmHg 63%
    20:00 +18°C° 0 mm 1 mps 728 mmHg 64%
    21:00 +18°C° 0 mm 1 mps 729 mmHg 65%
    22:00 +18°C° 0 mm 1 mps 729 mmHg 66%
    23:00 +16°C° 0.1 mm 1 mps 729 mmHg 71%

    Day after tomorrow, 23 September, Monday

    Time Temperature Precipitation Wind Pressure Humidity
    00:00 +16°C° 0.1 mm 2 mps 729 mmHg 75%
    01:00 +16°C° 0.1 mm 3 mps 729 mmHg 80%
    02:00 +16°C° 0.6 mm 3 mps 730 mmHg 83%
    03:00 +14°C° 0.6 mm 4 mps 730 mmHg 86%
    04:00 +13°C° 0.6 mm 5 mps 730 mmHg 89%
    05:00 +13°C° 1.4 mm 4 mps 731 mmHg 90%
    06:00 +13°C° 1.4 mm 3 mps 731 mmHg 91%
    07:00 +14°C° 1.4 mm 2 mps 731 mmHg 92%
    08:00 +14°C° 0.5 mm 2 mps 732 mmHg 91%
    09:00 +13°C° 0.5 mm 3 mps 732 mmHg 90%
    10:00 +13°C° 0.5 mm 3 mps 733 mmHg 89%
    11:00 +14°C° 0.3 mm 3 mps 733 mmHg 86%
    12:00 +14°C° 0.3 mm 3 mps 733 mmHg 83%
    13:00 +16°C° 0.3 mm 3 mps 733 mmHg 81%
    14:00 +16°C° 0 mm 3 mps 733 mmHg 77%
    15:00 +16°C° 0 mm 3 mps 733 mmHg 74%
    16:00 +17°C° 0 mm 3 mps 733 mmHg 70%
    17:00 +16°C° 0 mm 3 mps 733 mmHg 74%
    18:00 +15°C° 0 mm 2 mps 733 mmHg 77%
    19:00 +14°C° 0 mm 2 mps 733 mmHg 81%
    20:00 +13°C° 0 mm 1 mps 733 mmHg 83%
    21:00 +13°C° 0 mm 1 mps 733 mmHg 85%
    22:00 +12°C° 0 mm 1 mps 733 mmHg 87%
    23:00 +12°C° 0 mm 1 mps 733 mmHg 88%

    24 September, Tuesday

    Time Temperature Precipitation Wind Pressure Humidity
    00:00 +12°C° 0 mm 1 mps 733 mmHg 89%
    01:00 +11°C° 0 mm 1 mps 733 mmHg 89%
    02:00 +11°C° 0 mm 1 mps 733 mmHg 90%
    03:00 +11°C° 0 mm 1 mps 732 mmHg 90%
    04:00 +11°C° 0 mm 1 mps 732 mmHg 90%
    05:00 +11°C° 0 mm 1 mps 732 mmHg 90%
    06:00 +11°C° 0 mm 1 mps 731 mmHg 90%
    07:00 +11°C° 0 mm 1 mps 731 mmHg 90%
    08:00 +13°C° 0 mm 1 mps 731 mmHg 82%
    09:00 +15°C° 0 mm 1 mps 730 mmHg 75%
    10:00 +17°C° 0 mm 2 mps 730 mmHg 67%
    11:00 +17°C° 0 mm 2 mps 730 mmHg 62%
    12:00 +18°C° 0 mm 3 mps 730 mmHg 57%
    13:00 +19°C° 0 mm 3 mps 729 mmHg 53%
    14:00 +17°C° 0.4 mm 3 mps 729 mmHg 63%
    15:00 +16°C° 0.4 mm 2 mps 729 mmHg 73%
    16:00 +14°C° 0.4 mm 2 mps 728 mmHg 83%
    17:00 +14°C° 0.1 mm 2 mps 728 mmHg 84%
    18:00 +14°C° 0.1 mm 2 mps 728 mmHg 84%
    19:00 +13°C° 0.1 mm 2 mps 728 mmHg 85%
    20:00 +12°C° 0 mm 3 mps 727 mmHg 86%
    21:00 +12°C° 0 mm 3 mps 727 mmHg 87%
    22:00 +12°C° 0 mm 3 mps 727 mmHg 87%
    23:00 +12°C° 0.1 mm 3 mps 727 mmHg 88%

    25 September, Wednesday

    Time Temperature Precipitation Wind Pressure Humidity
    00:00 +12°C° 0.1 mm 3 mps 727 mmHg 88%
    01:00 +13°C° 0.1 mm 4 mps 727 mmHg 88%
    02:00 +12°C° 0.4 mm 4 mps 727 mmHg 88%
    03:00 +12°C° 0.4 mm 4 mps 727 mmHg 87%
    04:00 +12°C° 0.4 mm 5 mps 727 mmHg 87%
    05:00 +12°C° 0.4 mm 5 mps 728 mmHg 88%
    06:00 +12°C° 0.4 mm 5 mps 728 mmHg 88%
    07:00 +10°C° 0.4 mm 5 mps 728 mmHg 88%
    08:00 +12°C° 0.4 mm 5 mps 728 mmHg 85%
    09:00 +12°C° 0.4 mm 5 mps 729 mmHg 81%
    10:00 +12°C° 0.4 mm 5 mps 729 mmHg 78%
    11:00 +14°C° 0.1 mm 5 mps 729 mmHg 70%
    12:00 +15°C° 0.1 mm 5 mps 729 mmHg 62%
    13:00 +16°C° 0.1 mm 6 mps 729 mmHg 54%
    14:00 +16°C° 0.1 mm 5 mps 729 mmHg 55%
    15:00 +15°C° 0.1 mm 5 mps 729 mmHg 57%
    16:00 +15°C° 0.1 mm 5 mps 729 mmHg 58%
    17:00 +14°C° 0 mm 4 mps 729 mmHg 64%
    18:00 +13°C° 0 mm 4 mps 729 mmHg 69%
    19:00 +12°C° 0 mm 3 mps 729 mmHg 75%
    20:00 +12°C° 0 mm 3 mps 729 mmHg 76%
    21:00 +12°C° 0 mm 3 mps 729 mmHg 78%
    22:00 +12°C° 0 mm 3 mps 730 mmHg 79%
    23:00 +12°C° 0 mm 3 mps 730 mmHg 80%

    26 September, Thursday

    Time Temperature Precipitation Wind Pressure Humidity
    00:00 +12°C° 0 mm 4 mps 729 mmHg 82%
    01:00 +12°C° 0 mm 4 mps 729 mmHg 83%
    02:00 +12°C° 0 mm 4 mps 729 mmHg 83%
    03:00 +12°C° 0 mm 4 mps 729 mmHg 83%
    04:00 +12°C° 0 mm 3 mps 729 mmHg 83%
    05:00 +12°C° 0 mm 3 mps 729 mmHg 82%
    06:00 +12°C° 0 mm 3 mps 729 mmHg 81%
    07:00 +12°C° 0 mm 3 mps 729 mmHg 80%
    08:00 +13°C° 0 mm 4 mps 729 mmHg 77%
    09:00 +14°C° 0 mm 4 mps 729 mmHg 74%
    10:00 +15°C° 0 mm 4 mps 729 mmHg 71%
    11:00 +15°C° 0 mm 5 mps 729 mmHg 68%
    12:00 +16°C° 0 mm 5 mps 729 mmHg 66%
    13:00 +17°C° 0 mm 5 mps 728 mmHg 63%
    14:00 +16°C° 0.1 mm 5 mps 728 mmHg 67%
    15:00 +17°C° 0.1 mm 4 mps 728 mmHg 72%
    16:00 +16°C° 0.1 mm 3 mps 727 mmHg 77%
    17:00 +16°C° 0 mm 3 mps 727 mmHg 77%
    18:00 +16°C° 0 mm 3 mps 727 mmHg 76%
    19:00 +16°C° 0 mm 3 mps 727 mmHg 76%
    20:00 +16°C° 0.1 mm 3 mps 727 mmHg 77%
    21:00 +16°C° 0.1 mm 3 mps 727 mmHg 77%
    22:00 +16°C° 0.1 mm 3 mps 727 mmHg 78%
    23:00 +15°C° 0.2 mm 4 mps 727 mmHg 80%
    Show more